www.pogodaiklimat.ru

Погода и климат >> Архив погоды >> Швейцария >> Альтдорф


ПОГОДА в Альтдорфе

  • Прогноз погоды в Альтдорфе
  • Монитор погоды в Альтдорфе

АРХИВ ПОГОДЫ в Альтдорфе

Время (UTC), дата Ветер
(напр.,м/с)
 
Видим.   Явления Облачность Т
(С)
Тd
(С)
f
(%)
Тe
(С)
Тes
(С)
Комфортность P
(гПа)
Po
(гПа)
Тmin
(С)
Tmax
(С)
R
(мм)
R24
(мм)
S
(см)
10 9.07 СЗ 3
{6}
н/о н/о +16.0 +12.7 81 +16 +16 1016.8 965.8
11 9.07 СЗ 3
{6}
н/о н/о +16.5 +12.9 79 +16 +16 1017.1 966.2
12 9.07 СЗ 2
{8}
н/о н/о +16.6 +12.6 77 +17 +17 1017.2 966.3
13 9.07 СЗ 1
{3}
н/о н/о +16.7 +12.9 78 +18 +18 1016.9 966.0
14 9.07 ЮВ 1
{2}
н/о н/о +17.1 +12.8 76 +19 +19 1016.5 965.7
15 9.07 штиль 0
{3}
10 км мгла 10/10 660 м
[]
+17.4 +12.9 75 +17 +17 1016.1 965.4
16 9.07 Ю 1
{2}
н/о н/о +17.7 +14.1 79 +19 +19 1015.5 964.9
17 9.07 штиль 0
{2}
н/о н/о +17.7 +13.7 77 +18 +18 1015.3 964.7
18 9.07 Ю 1 15 км 9/9 1500 м
[]
+17.2 +14.1 82 +18 +18 1015.7 965.0 +17.8
19 9.07 З 1
{1}
н/о н/о +16.1 +14.1 88 +17 +17 1016.1 965.1
20 9.07 штиль 0
{1}
н/о н/о +15.9 +14.1 89 +16 +16 1016.3 965.3
21 9.07 Ю 1
{1}
15 км 9/9 1500 м
[]
+15.4 +14.0 91 +17 +17 1016.5 965.4
22 9.07 С 1
{2}
н/о н/о +13.9 +13.2 96 +15 +15 1016.9 965.5
23 9.07 Ю 1
{2}
н/о н/о +14.2 +13.2 94 +15 +15 1017.0 965.7
00 10.07 штиль 0
{2}
15 км 4/0 2000 м
[]
+13.7 +12.9 95 +13 +13 1017.1 965.7
01 10.07 Ю 1
{2}
н/о н/о +13.9 +13.2 96 +15 +15 1017.0 965.6
02 10.07 ЮЗ 1
{2}
н/о н/о +15.3 +13.2 87 +17 +17 1016.7 965.6
03 10.07 СЗ 3
{6}
15 км 10/10 1500 м
[]
+15.4 +10.0 70 +15 +15 1016.9 965.8
04 10.07 СЗ 3
{6}
н/о н/о +14.9 +9.7 71 +14 +14 1017.3 966.1
05 10.07 СЗ 3
{5}
н/о н/о +14.6 +9.6 72 +14 +14 1017.6 966.3
06 10.07 С 3 20 км 10/10 600 м
[]
+14.7 +10.3 75 +14 +14 1017.8 966.5 +13.1
07 10.07 СЗ 2
{5}
н/о н/о +15.1 +9.7 70 +15 +15 1018.3 967.1
08 10.07 С 1
{3}
н/о н/о +15.7 +10.2 70 +16 +16 1018.2 967.1
09 10.07 СЗ 3
{5}
20 км 5/5 960 м
[]
+17.4 +12.2 72 +18 +24 1017.7 966.9
10 10.07 С 4
{5}
н/о н/о +18.0 +11.9 68 +18 +18 1017.4 966.7
11 10.07 СЗ 3
{6}
н/о н/о +20.2 +12.2 60 +22 +22 комфорт 1016.5 966.3
12 10.07 СЗ 5
{7}
20 км 4/4 1500 м
[]
+20.9 +12.5 59 +23 +30 комфорт 1016.0 965.9
13 10.07 СЗ 5
{8}
н/о н/о +21.7 +12.3 55 +24 +24 комфорт 1015.5 965.6
14 10.07 СЗ 6
{10}
н/о н/о +21.5 +11.6 53 +24 +24 комфорт 1015.2 965.2
15 10.07 СЗ 5
{10}
25 км 3/0 2000 м
[]
+21.6 +11.5 53 +24 +28 комфорт 1015.1 965.2
16 10.07 СЗ 5
{9}
н/о н/о +21.5 +11.3 52 +23 +23 комфорт 1015.4 965.4
17 10.07 З 2
{8}
н/о н/о +20.9 +10.7 52 +23 +23 комфорт 1015.5 965.4
18 10.07 З 1 25 км 3/0 2000 м
[]
+20.6 +10.4 52 +23 +24 комфорт 1015.6 965.5 +22.3
19 10.07 Ю 1
{3}
н/о н/о +19.3 +11.1 59 +22 +22 комфорт 1016.2 965.8
20 10.07 Ю 2
{3}
н/о н/о +17.0 +11.3 69 +18 +18 1017.4 966.5
21 10.07 Ю 1
{3}
20 км 3/3 1500 м
[]
+15.1 +11.3 78 +16 +16 1017.9 966.7
22 10.07 ЮЗ 1
{2}
н/о н/о +16.2 +10.9 71 +18 +18 1017.7 966.7
23 10.07 Ю 1
{2}
н/о н/о +14.1 +10.6 79 +14 +14 1017.8 966.4
00 11.07 СЗ 1
{3}
20 км ясно +14.2 +10.6 79 +15 +15 1017.5 966.1
01 11.07 ЮВ 1
{1}
н/о н/о +13.4 +10.6 83 +14 +14 1016.9 965.4
02 11.07 Ю 1
{2}
н/о н/о +12.1 +10.2 88 +12 +12 1016.7 965.0
03 11.07 Ю 1
{2}
20 км ясно +12.5 +10.5 88 +12 +12 1016.2 964.6
04 11.07 Ю 1
{2}
н/о н/о +11.4 +10.0 91 +11 +11 1016.1 964.3
05 11.07 штиль 0
{2}
н/о н/о +13.4 +10.6 83 +13 +13 1015.7 964.3
06 11.07 С 1 25 км 6/0
[]
+13.6 +11.4 87 +15 +17 1015.7 964.3 +11.2
07 11.07 СЗ 1
{2}
н/о н/о +16.9 +10.9 68 +18 +18 1015.1 964.3
08 11.07 СЗ 2
{2}
н/о н/о +17.9 +12.2 69 +19 +19 1014.9 964.3
09 11.07 С 1
{2}
25 км 10/0
[]
+18.3 +12.7 70 +20 +28 1014.7 964.2
10 11.07 С 2
{3}
н/о н/о +19.2 +12.3 64 +21 +21 комфорт 1014.1 963.8
11 11.07 СЗ 3
{5}
н/о н/о +20.7 +13.6 64 +24 +24 комфорт 1013.8 963.8
12 11.07 СЗ 5
{8}
25 км 10/0
[]
+21.0 +13.1 61 +24 +29 комфорт 1013.3 963.4
13 11.07 СЗ 3
{8}
н/о н/о +21.5 +11.7 54 +24 +24 комфорт 1012.9 963.1
14 11.07 СЗ 4
{7}
н/о н/о +21.5 +13.3 60 +24 +24 комфорт 1012.9 963.1
15 11.07 С 8
{12}
20 км 10/0
[]
+21.0 +10.8 52 +23 +24 комфорт 1013.8 963.8
16 11.07 Ю 1
{12}
н/о н/о +19.5 +13.5 68 +22 +22 комфорт 1015.0 964.7
17 11.07 ЮВ 2
{3}
н/о н/о +18.5 +13.0 70 +20 +20 1015.5 965.0
18 11.07 ЮВ 3
{12}
20 км 10/0
[]
+18.1 +13.4 74 +18 +19 1015.5 964.9 +21.6
19 11.07 ЮВ 2
{4}
н/о н/о +17.9 +13.3 74 +18 +18 1015.6 965.0
20 11.07 Ю 1
{3}
н/о н/о +17.3 +13.1 76 +18 +18 1015.8 965.1
21 11.07 ЮВ 1
{4}
20 км 10/0 2000 м
[]
+16.5 +12.5 77 +18 +18 1016.2 965.3
22 11.07 Ю 1
{2}
н/о н/о +15.8 +12.3 80 +17 +17 1016.1 965.1
23 11.07 ЮВ 1
{2}
н/о н/о +14.8 +12.9 88 +15 +15 1016.2 965.0
00 12.07 ЮЗ 1
{4}
20 км 10/10 1500 м
[]
+15.8 +12.1 79 +16 +16 1015.4 964.4
01 12.07 штиль 0
{2}
н/о н/о +15.1 +13.0 87 +15 +15 1015.3 964.2
02 12.07 штиль 0
{1}
н/о н/о +15.6 +12.3 81 +15 +15 1015.1 964.1
03 12.07 штиль 0
{2}
20 км 10/10 1500 м
[]
+15.4 +12.3 82 +15 +15 1015.1 964.1
04 12.07 ЮВ 1
{2}
н/о н/о +14.4 +12.6 89 +15 +15 1015.3 964.1
05 12.07 Ю 1
{2}
н/о н/о +15.2 +12.8 86 +16 +16 1015.3 964.2
06 12.07 ЮВ 1
{2}
25 км 8/0 2000 м
[]
+15.9 +13.2 84 +17 +19 1014.6 963.7 +13.8
07 12.07 С 1
{3}
н/о н/о +17.2 +13.3 78 +19 +19 1014.6 963.9
08 12.07 В 1
{2}
н/о н/о +19.3 +13.8 70 +22 +22 комфорт 1013.7 963.4
09 12.07 В 1
{4}
25 км 9/0
[]
+19.0 +13.1 69 +21 +30 комфорт 1014.0 963.7
10 12.07 СЗ 1
{2}
н/о н/о +20.1 +12.5 62 +23 +23 комфорт 1013.3 963.2
11 12.07 СЗ 1
{11}
н/о н/о +17.6 +14.6 83 +19 +19 1015.9 965.2 1
12 12.07 СЗ 1
{11}
20 км {дождь} 9/0
[]
+19.5 +15.4 77 +23 +35 комфорт 1014.6 964.3
13 12.07 СЗ 2
{4}
н/о н/о +20.2 +16.0 77 +24 +24 комфорт 1013.4 963.3
14 12.07 СЗ 1
{7}
н/о н/о +20.0 +15.9 77 +24 +24 комфорт 1013.2 963.1 0.1
15 12.07 С 1
{7}
20 км 9/0
[]
+19.9 +15.4 75 +23 +29 комфорт 1012.7 962.6
16 12.07 ЮВ 2
{4}
н/о н/о +21.0 +16.2 74 +25 +25 комфорт 1011.8 961.9
17 12.07
{3}
н/о н/о +20.0 +16.6 81 1011.7 961.7
18 12.07 З 1
{7}
15 км дождь {гроза} 9/0
[]
+18.9 +16.9 88 +21 +22 комфорт 1012.4 962.1 +21.0 0.2
19 12.07 Ю 1
{3}
н/о н/о +18.5 +16.8 90 +20 +20 1013.2 962.8
20 12.07 ЮВ 1
{2}
н/о н/о +17.9 +16.7 93 +19 +19 1013.4 962.9
21 12.07 СЗ 1
{5}
10 км гроза без осадков 10/10 1500 м
[]
+18.0 +16.5 91 +20 +20 1014.4 963.9 2
22 12.07 ЮЗ 1
{2}
н/о н/о +17.1 +16.0 93 +18 +18 1015.0 964.3 0.2
23 12.07 ЮВ 2
{2}
н/о н/о +16.8 +15.9 94 +17 +17 1015.0 964.2 0.2
00 13.07 Ю 1
{5}
н/о н/о +16.5 +15.7 95 +17 +17 1014.8 964.0 0.1
01 13.07 ЮВ 2
{5}
н/о н/о +16.2 +15.0 93 +16 +16 1014.7 963.8 0.1
02 13.07 С 6
{11}
н/о н/о +16.7 +12.6 77 +16 +16 1015.1 964.3 2
03 13.07 СВ 3
{12}
15 км {дождь} 10/10 1500 м
[]
+15.8 +13.2 85 +15 +15 1015.7 964.7 0.2
04 13.07 В 1
{3}
н/о н/о +15.3 +13.5 89 +16 +16 1016.5 965.4 0.9
05 13.07 В 2
{5}
н/о н/о +15.1 +13.9 93 +15 +15 1017.0 965.8
06 13.07 ЮЗ 1
{12}
20 км {дождь} 9/9 750 м
[]
+16.0 +14.2 89 +17 +18 1017.3 966.3 +15.1 0.1
07 13.07 В 1
{2}
н/о н/о +17.4 +13.1 76 +18 +18 1017.3 966.5
08 13.07 ЮВ 3
{5}
н/о н/о +18.2 +12.9 71 +19 +19 1016.9 966.3
09 13.07 С 5
{9}
20 км {дождь} 9/9 960 м
[]
+18.9 +12.4 66 +19 +20 1016.8 966.3
10 13.07 С 5
{10}
н/о н/о +19.7 +11.2 58 +21 +21 комфорт 1016.6 966.3
11 13.07 С 5
{9}
н/о н/о +19.6 +11.8 61 +21 +21 комфорт 1016.6 966.2
12 13.07 С 5
{10}
20 км {дождь} 9/9 1350 м
[]
+20.9 +12.7 59 +23 +24 комфорт 1016.4 966.3
13 13.07 СЗ 5
{9}
н/о н/о +20.5 +10.2 52 +22 +22 комфорт 1016.2 966.0
14 13.07 СЗ 4
{8}
н/о н/о +20.7 +10.6 52 +23 +23 комфорт 1015.9 965.8
15 13.07 СЗ 4
{9}
20 км 9/9 1350 м
[]
+20.4 +10.9 54 +22 +23 комфорт 1016.0 965.8
16 13.07 СЗ 3
{7}
н/о н/о +20.2 +11.1 56 +22 +22 комфорт 1015.8 965.6
17 13.07 С 3
{6}
н/о н/о +19.5 +12.4 64 +21 +21 комфорт 1016.0 965.7
18 13.07 С 3
{9}
20 км 9/9 1350 м
[]
+19.8 +10.6 55 +22 +22 комфорт 1016.1 965.8 +20.9
19 13.07 С 1
{4}
н/о н/о +19.0 +11.8 63 +21 +21 комфорт 1016.5 966.0
20 13.07 ЮВ 1
{1}
н/о н/о +18.2 +11.8 66 +20 +20 1017.1 966.5
21 13.07 ЮВ 1
{4}
15 км 9/9 1350 м
[]
+16.5 +12.4 77 +17 +17 1017.7 966.7
22 13.07 Ю 1
{2}
н/о н/о +16.2 +12.7 80 +17 +17 1017.5 966.5
23 13.07 ЮВ 1
{2}
н/о н/о +16.0 +12.3 79 +17 +17 1017.3 966.3
00 14.07 В 2
{4}
15 км 9/9 1350 м
[]
+15.7 +12.1 79 +16 +16 1017.2 966.1
01 14.07 ЮВ 1
{2}
н/о н/о +13.4 +11.4 88 +14 +14 1017.1 965.6
02 14.07 ЮВ 1
{2}
н/о н/о +12.8 +10.9 88 +14 +14 1016.8 965.2
03 14.07 штиль 0
{2}
15 км ясно +12.3 +10.7 90 +12 +12 1016.7 965.0
04 14.07 ЮВ 1
{2}
н/о н/о +11.1 +10.0 93 +11 +11 1016.8 964.9
05 14.07 ЮВ 1
{1}
н/о н/о +11.4 +10.2 92 +11 +11 1016.6 964.8
06 14.07 штиль 0
{2}
25 км 1/0
[]
+12.8 +11.1 89 +12 +16 1016.0 964.5 +10.6
07 14.07 СВ 1
{2}
н/о н/о +16.2 +11.2 72 +18 +18 1015.1 964.2
08 14.07 СЗ 3
{4}
н/о н/о +17.5 +12.1 71 +17 +17 1014.6 964.0
09 14.07 С 3
{4}
25 км 3/0
[]
+18.9 +13.1 69 +20 +29 1014.1 963.7
10 14.07 СЗ 3
{6}
н/о н/о +20.8 +13.1 61 +24 +24 комфорт 1013.1 963.1
11 14.07 С 5
{9}
н/о н/о +22.5 +14.8 62 +26 +26 жарко 1012.2 962.6
12 14.07 С 6
{9}
20 км 5/0
[]
+22.9 +14.4 59 +27 +32 душно 1011.4 961.9
13 14.07 СЗ 5
{8}
н/о н/о +21.6 +12.3 55 +24 +24 комфорт 1011.2 961.5
14 14.07 СЗ 4
{7}
н/о н/о +21.7 +12.6 56 +24 +24 комфорт 1010.8 961.1
15 14.07 С 5
{8}
20 км 9/0
[]
+21.5 +12.4 56 +24 +27 комфорт 1010.6 960.9
16 14.07 ЮВ 1
{5}
н/о н/о +19.2 +14.4 74 +22 +22 комфорт 1010.9 960.8
17 14.07 СЗ 2
{7}
н/о н/о +17.3 +13.1 76 +18 +18 1013.3 962.7 0.7
18 14.07 СЗ 2
{8}
20 км 9/9 1500 м
[]
+16.3 +14.3 88 +17 +17 1013.1 962.3 +22.9
19 14.07 СЗ 2
{4}
н/о н/о +16.2 +13.8 86 +17 +17 1013.7 962.9 0.4
20 14.07 З 1
{3}
н/о н/о +15.3 +14.1 93 +16 +16 1015.0 964.0 4
21 14.07 СЗ 1
{4}
15 км дождь 10/10 1500 м
[]
+14.9 +13.8 93 +15 +15 1015.4 964.3 5
22 14.07 ЮВ 1
{2}
н/о н/о +14.7 +14.0 96 +16 +16 1015.4 964.2 0.9
23 14.07 З 1
{1}
н/о н/о +14.6 +13.7 94 +16 +16 1015.0 963.8 0.1
00 15.07 З 1
{4}
15 км 10/10 1500 м
[]
+14.3 +13.4 94 +15 +15 1014.4 963.2
01 15.07 В 1
{2}
н/о н/о +14.4 +13.4 94 +15 +15 1014.1 962.9 0.1
02 15.07 З 1
{2}
н/о н/о +14.3 +13.6 96 +15 +15 1013.3 962.2
03 15.07 В 1
{2}
15 км 10/10 1500 м
[]
+14.2 +13.5 96 +15 +15 1013.6 962.4 0.1
04 15.07 З 1
{1}
н/о н/о +14.1 +13.1 94 +15 +15 1013.5 962.3 0.2
05 15.07 ЮВ 1
{1}
н/о н/о +14.3 +13.5 95 +15 +15 1013.8 962.6
06 15.07 ЮВ 1
{2}
15 км 10/10 1500 м
[]
+14.7 +13.6 93 +15 +15 1014.0 962.9 +13.9 0.1
07 15.07 ЮВ 1
{2}
н/о н/о +15.3 +13.7 90 +16 +16 1014.2 963.2
08 15.07 С 2
{3}
н/о н/о +15.6 +13.7 88 +16 +16 1014.5 963.5
09 15.07 СЗ 2
{3}
15 км 10/10 450 м
[]
+16.1 +13.5 85 +16 +16 1014.7 963.8
10 15.07 СЗ 2
{4}
н/о н/о +17.4 +13.3 77 +18 +18 1014.4 963.8
11 15.07 СЗ 4
{5}
н/о н/о +18.0 +13.4 74 +18 +18 1014.3 963.8
12 15.07 СЗ 3
{5}
20 км 9/9 570 м
[]
+18.9 +14.0 73 +20 +22 1014.1 963.7
13 15.07 С 4
{6}
н/о н/о +19.1 +14.1 73 +20 +20 1014.1 963.8
14 15.07 ЮЗ 2
{5}
н/о н/о +19.1 +13.0 68 +21 +21 комфорт 1014.3 964.0
15 15.07 З 2
{6}
20 км 6/6 960 м
[]
+20.6 +12.7 61 +23 +27 комфорт 1013.8 963.8
16 15.07 СЗ 2
{3}
н/о н/о +21.2 +15.2 69 +24 +24 комфорт 1013.5 963.6
17 15.07 З 1
{3}
н/о н/о +19.9 +14.4 71 +24 +24 комфорт 1013.8 963.6
18 15.07 В 1
{6}
2000 м слаб. дождь 9/9 960 м
[]
+17.9 +16.3 90 +19 +19 1014.7 964.1 +21.2
19 15.07 ЮВ 1
{2}
н/о н/о +17.4 +15.8 90 +19 +19 1015.2 964.5
20 15.07 Ю 1
{2}
н/о н/о +16.3 +15.0 92 +17 +17 1015.9 965.0
21 15.07 ЮВ 1
{2}
15 км {дождь} 10/10 1500 м
[]
+15.9 +14.8 93 +17 +17 1016.6 965.6
22 15.07 ЮЗ 1
{1}
н/о н/о +15.8 +14.2 90 +17 +17 1016.9 965.9
23 15.07 штиль 0
{2}
н/о н/о +14.7 +13.2 91 +14 +14 1017.2 965.9
00 16.07 ЮЗ 1
{2}
15 км 10/10 1500 м
[]
+15.4 +13.4 88 +16 +16 1017.2 966.1
01 16.07 ЮВ 1
{2}
н/о н/о +14.4 +12.6 89 +15 +15 1017.5 966.2
02 16.07 З 1
{2}
н/о н/о +13.5 +12.4 93 +14 +14 1017.7 966.2
03 16.07 штиль 0
{2}
20 км 4/4 1500 м
[]
+12.9 +11.8 93 +12 +12 1017.9 966.3
04 16.07 ЮВ 1
{2}
н/о н/о +12.4 +11.5 94 +12 +12 1017.9 966.2
05 16.07 Ю 1
{2}
н/о н/о +12.2 +11.2 94 +12 +12 1018.3 966.5
06 16.07 штиль 0
{2}
н/о н/о +13.0 +11.8 92 +12 +12 1018.2 966.6 +11.6
07 16.07 СВ 1
{2}
н/о н/о +16.8 +13.5 81 +18 +18 1017.4 966.5
08 16.07 С 2
{3}
н/о н/о +17.7 +12.8 73 +18 +18 1016.9 966.2
09 16.07 СЗ 2
{4}
25 км 1/0
[]
+19.0 +13.0 68 +21 +34 комфорт 1016.5 966.0
10 16.07 СЗ 2
{4}
н/о н/о +20.4 +15.7 74 +24 +24 комфорт 1016.1 965.9

 

Местоположение метеостанции Альтдорф (Швейцария): широта 46.87 долгота 8.63 высота над уровнем моря 451 м.

В архиве по умолчанию представлена погода в Альтдорфе за последнюю неделю. Архивные данные за месяц целиком и за предыдущие месяцы, начиная с января 2011 года, Вы можете получить, выбрав интересующий диапазон дат из раскрывающегося списка и нажав кнопку "Ввод!".


*Определитесь, кто Вы:
робот инопланетянин человек

Внимание! Время в таблицах - всемирное. Для получения местного времени необходимо прибавить поправку, которая равна 1 ч.

Смотрите также архив погоды в соседних городах и на ближайших метеорологических станциях:

Погода в Энгельберге (Швейцария) (17 км)
Погода на Титлисе (Швейцария) (19 км)
Погода в Гёшенене (Швейцария) (22 км)
Погода на Гютш об Андерматте (Швейцария) (24 км)
Погода в Дитсентисе (Швейцария) (25 км)
Погода в Андерматте (Швейцария) (27 км)
Погода в Айнзидельне (Швейцария) (30 км)
Погода в Люцерне (Швейцария) (31 км)
Погода на Пилатусе (Швейцария) (31 км)
Погода в Гисвиле (Швейцария) (35 км)

Пояснения к столбцам:

Ветер - указаны скорость ветра в м/с - средняя за 10 мин, порывы в срок и между сроками (в фигурных скобках) и направление, откуда дует ветер: С - северный, СВ - северо-восточный, В - восточный, ЮВ - юго-восточный, Ю - южный, ЮЗ - юго-западный, З - западный, СЗ - северо-западный.
Видимость - горизонтальная дальность видимости в метрах или километрах. При видимости от 1 до 10 км при отсутствии осадков обычно наблюдается дымка, при ухудшении видимости до 1 км и менее - туман. В сухую погоду видимость может ухудшаться дымом, пылью или мглою.
Явления - указаны атмосферные явления, наблюдавшиеся в срок или в последний час перед сроком; фигурными скобками обозначены явления, наблюдавшиеся между сроками (за 1-3 часа до срока); квадратными скобками обозначены град или гололедные отложения с указанием их диаметра в мм.
Облачность - указаны через наклонную черту общая и нижняя облачность в баллах и высота нижней границы облаков в метрах; квадратными скобками обозначены формы облаков: Ci - перистые, Cs - перисто-слоистые, Cc - перисто-кучевые, Ac - высококучевые, As - высокослоистые, Sc - слоисто-кучевые, Ns - слоисто-дождевые, Cu - кучевые, Cb - кучево-дождевые. Подробнее классификацию облаков см. в Атласе облаков (PDF).
T - Температура воздуха - температура, измеренная на высоте 2 м над землей.
Td - Температура точки росы - температура, при понижении до которой содержащийся в воздухе водяной пар достигнет насыщения.
f - Относительная влажность воздуха - влажноcть воздуха, измеренная на высоте 2 м над землей.
Te - Эффективная температура - температура, которую ощущает одетый по сезону человек в тени. Характеристика душности погоды. При расчете учитывается влияние влажности воздуха и скорости ветра на теплоощущения человека.
Tes - Эффективная температура на солнце - температура, которую ощущает человек, с поправкой на солнечный нагрев. Характеристика знойности погоды. Зависит от высоты солнца над горизонтом, облачности и скорости ветра. Ночью, в пасмурную погоду, а также при ветре 12 м/с и более поправка равна нулю.
P - Атмосферное давление - приведенное к уровню моря атмосферное давление.
Po - Атмосферное давление - измеренное на уровне метеостанции атмосферное давление.
Tmin - Минимальная температура - минимум температуры воздуха на высоте 2 м над землей.
Tmax - Максимальная температура - максимум температуры воздуха на высоте 2 м над землей.
R - Количество осадков - Количество выпавших осадков за период времени, мм. При наведении курсора мыши на число - период времени, за который выпало указанное количество осадков.
R24 - Количество осадков - Количество выпавших осадков за 24 часа, мм.
S - Снежный покров - Высота снежного покрова, см. При наведении курсора мыши на число - состояние снежного покрова и степень покрытия местности в баллах.